Regional Weather Roundup
Issued by NWS

Home | Current Version | Previous Version | Graphics & Text | Print | Product List | Glossary On
Versions: 1 2 3 4 5 6 7 8 9 10 11 12 13 14 15 16 17 18 19 20 21 22 23 24 25 26 27 28 29 30 31 32 33 34 35 36 37 38 39 40 41 42 43 44 45 46 47 48 49 50
448
ASUS43 KIND 110359
RWRIN

WEATHER ROUNDUP FOR INDIANA
NATIONAL WEATHER SERVICE INDIANAPOLIS IN
1100 PM EST WED FEB 10 2016

NOTE: "FAIR" INDICATES FEW OR NO CLOUDS BELOW 12,000 FEET WITH NO
SIGNIFICANT WEATHER AND/OR OBSTRUCTIONS TO VISIBILITY.

* - STATION DOES NOT REPORT WEATHER SUCH AS PRECIPITATION OR FOG.

+ - STATION NOT QUALITY CONTROLLED BY THE NATIONAL WEATHER SERVICE.
    USE DATA WITH CAUTION...ESPECIALLY DEWPOINT AND RELATIVE
    HUMIDITY OBSERVATIONS.

INZ001>003-010>013-019-020-110500-
NORTHWEST INDIANA

CITY           SKY/WX    TMP DP  RH WIND       PRES   REMARKS
GARY /AIRPORT/ CLOUDY    17   2  52 W9        30.16R WCI   5
MONTICELLO +   CLOUDY    15   4  60 NW7       30.14R WCI   5
RENSSELAER +   PTCLDY    14   5  67 W3        30.15R

$$

LMZ046-743>745-110500-
SOUTHERN LAKE MICHIGAN

STATION/POSITION TIME  TEMP    WIND        PRES    WAVE
                       AIR SEA DIR/SP/G            HT
                 (UTC) (F)     (DEG/KT/KT) (MB)    (FT)
BURNS HARBOR     0301   18     310/ 12/ 18 1020.7R
MICHIGAN CITY    0300   17     280/ 11/ 14   N/A

$$

INZ004-005-014>016-021>024-110500-
NORTH CENTRAL INDIANA

CITY           SKY/WX    TMP DP  RH WIND       PRES   REMARKS
GOSHEN         CLOUDY    14   8  77 W12       30.09R WCI   0
PERU/GRISSOM   CLOUDY    16   9  73 NW5       30.10S WCI   9
SOUTH BEND     SNOW      13  11  92 SW6       30.10R VSB 1/2 WCI   4

$$

INZ006>009-017-018-025>027-110500-
NORTHEAST INDIANA

CITY           SKY/WX    TMP DP  RH WIND       PRES   REMARKS
ANGOLA *+      CLOUDY    12   9  85 W5        30.03S WCI   4
FORT WAYNE     PTCLDY    15   4  61 W10       30.09R WCI   2

$$

INZ028-029-035-036-043>045-051>053-110500-
WEST CENTRAL INDIANA

CITY           SKY/WX    TMP DP  RH WIND       PRES   REMARKS
GREENCASTLE +  PTCLDY    16   3  57 W3        30.14R
LAFAYETTE      CLEAR      9   4  80 NW7       30.15R WCI  -2
TERRE HAUTE    PTCLDY    17   7  64 W6        30.17R WCI   9

$$

INZ030>032-037>040-046>048-054>057-064-065-110500-
CENTRAL INDIANA

CITY           SKY/WX    TMP DP  RH WIND       PRES   REMARKS
FRANKFORT +    CLEAR      8   0  68 W5        30.14R WCI   0
GREENWOOD *+   CLEAR     14   9  79 CALM      30.14R
INDIANAPOLIS   MOCLDY    12   5  73 NW6       30.13R WCI   3
-EAGLE CREEK   PTCLDY    14   6  70 NW7       30.13R WCI   4
KOKOMO *+      CLOUDY    16   9  73 NW6       30.12R WCI   7
MT COMFORT *+  PTCLDY    12   5  73 NW5       30.13R WCI   4
SHELBYVILLE    PTCLDY    11   3  70 SW5       30.13R WCI   3

$$

INZ033-034-041-042-049-050-058-059-110500-
EAST CENTRAL INDIANA

CITY           SKY/WX    TMP DP  RH WIND       PRES   REMARKS
MUNCIE         CLOUDY    16   6  65 W8        30.11R WCI   5

$$

INZ060-061-067>069-081>083-085>088-110500-
SOUTHWEST INDIANA

CITY           SKY/WX    TMP DP  RH WIND       PRES   REMARKS
EVANSVILLE     CLOUDY    23  16  74 SW3       30.20S
HUNTINGBURG *+ PTCLDY    18  12  79 W6        30.19S WCI   9

$$

INZ062-063-066-070>080-084-089>092-110500-
SOUTH CENTRAL AND SOUTHEAST INDIANA

CITY           SKY/WX    TMP DP  RH WIND       PRES   REMARKS
BLOOMINGTON    PTCLDY    16   6  65 W5        30.14R WCI   9
MADISON *+     PTCLDY    18  10  73 CALM      30.17R
SEYMOUR +      PTCLDY    19  10  68 CALM      30.16S

$$





USA.gov is the U.S. government's official web portal to all federal, state and local government web resources and services.